AUA105 LOWW-LFST

Flight info

Callsign AUA105
Flight time N/A
Altitude 38000
Route TUN DCT LNZ DCT SBG DCT OTT DCT SUL DCT STR
Aircraft A320/M-SDE3FGHIRWY/LB1

Departure

Time N/A
Airport Vienna International Airport (LOWW)

Arrival

Time 2026-05-08 16:09
Airport Strasbourg Airport (LFST)
Time Latitude Longitude Altitude Speed Heading
2026-05-08 15:20 48.07207 13.25447 38060 ft 407 kts 253°
2026-05-08 15:20 48.06432 13.21381 38058 ft 408 kts 253°
2026-05-08 15:20 48.04875 13.13229 38052 ft 408 kts 253°
2026-05-08 15:21 48.03310 13.05080 38051 ft 408 kts 253°
2026-05-08 15:21 48.01742 12.96923 38055 ft 408 kts 253°
2026-05-08 15:22 48.00835 12.88636 38051 ft 410 kts 270°
2026-05-08 15:22 48.01805 12.80236 38051 ft 413 kts 282°
2026-05-08 15:23 48.03220 12.71911 38047 ft 414 kts 282°
2026-05-08 15:23 48.04624 12.63564 38052 ft 414 kts 281°
2026-05-08 15:24 48.06021 12.55195 38048 ft 415 kts 281°
2026-05-08 15:24 48.07403 12.46886 38059 ft 415 kts 281°
2026-05-08 15:25 48.08791 12.38504 38053 ft 415 kts 281°
2026-05-08 15:25 48.10179 12.30112 38071 ft 416 kts 281°
2026-05-08 15:26 48.11563 12.21712 38059 ft 416 kts 281°
2026-05-08 15:26 48.12933 12.13356 38059 ft 416 kts 281°
2026-05-08 15:27 48.14307 12.04935 38065 ft 416 kts 281°
2026-05-08 15:27 48.15662 11.96506 38080 ft 417 kts 281°
2026-05-08 15:28 48.17015 11.88067 38078 ft 417 kts 281°
2026-05-08 15:28 48.18205 11.79642 38078 ft 415 kts 274°
2026-05-08 15:29 48.18860 11.71048 38060 ft 415 kts 275°
2026-05-08 15:29 48.19517 11.62442 38063 ft 416 kts 275°
2026-05-08 15:30 48.20172 11.53837 38065 ft 416 kts 275°
2026-05-08 15:30 48.20816 11.45278 38066 ft 416 kts 274°
2026-05-08 15:31 48.21451 11.36664 38066 ft 416 kts 274°
2026-05-08 15:31 48.22078 11.28019 38064 ft 417 kts 274°
2026-05-08 15:32 48.22703 11.19393 38067 ft 417 kts 274°
2026-05-08 15:32 48.23319 11.10801 38064 ft 417 kts 274°
2026-05-08 15:33 48.23926 11.02157 38064 ft 417 kts 274°
2026-05-08 15:33 48.24530 10.93498 38065 ft 417 kts 274°
2026-05-08 15:34 48.25131 10.84845 38064 ft 417 kts 274°
2026-05-08 15:34 48.25728 10.76173 37818 ft 419 kts 274°
2026-05-08 15:35 48.26021 10.71886 37476 ft 417 kts 274°
2026-05-08 15:35 48.26120 10.70427 37359 ft 417 kts 274°
2026-05-08 15:35 48.26327 10.67335 37117 ft 416 kts 274°
2026-05-08 15:35 48.26614 10.63016 36779 ft 415 kts 274°
2026-05-08 15:36 48.26902 10.58702 36451 ft 415 kts 274°
2026-05-08 15:36 48.27091 10.55857 36236 ft 414 kts 274°
2026-05-08 15:36 48.27473 10.50129 35806 ft 410 kts 274°
2026-05-08 15:36 48.27752 10.45894 35485 ft 407 kts 273°
2026-05-08 15:37 48.28025 10.41680 35172 ft 403 kts 273°
2026-05-08 15:37 48.28291 10.37562 34868 ft 400 kts 273°
2026-05-08 15:37 48.28558 10.33415 34555 ft 397 kts 273°
2026-05-08 15:37 48.28824 10.29302 34251 ft 395 kts 273°
2026-05-08 15:38 48.29088 10.25221 33924 ft 392 kts 273°
2026-05-08 15:38 48.29346 10.21166 33560 ft 389 kts 272°
2026-05-08 15:38 48.29601 10.17127 33204 ft 386 kts 272°
2026-05-08 15:38 48.29853 10.13125 32849 ft 384 kts 272°
2026-05-08 15:39 48.30100 10.09145 32498 ft 381 kts 272°
2026-05-08 15:39 48.30343 10.05195 32153 ft 379 kts 272°
2026-05-08 15:39 48.30579 10.01322 31820 ft 377 kts 272°
2026-05-08 15:39 48.30818 9.97419 31485 ft 374 kts 272°
2026-05-08 15:40 48.31057 9.93529 31152 ft 372 kts 272°
2026-05-08 15:40 48.31292 9.89669 30825 ft 370 kts 272°
2026-05-08 15:40 48.31523 9.85825 30507 ft 368 kts 272°
2026-05-08 15:40 48.31751 9.82009 30186 ft 366 kts 272°
2026-05-08 15:41 48.31977 9.78203 29832 ft 365 kts 272°
2026-05-08 15:41 48.32199 9.74468 29463 ft 363 kts 272°
2026-05-08 15:41 48.32421 9.70703 29098 ft 361 kts 272°
2026-05-08 15:41 48.32641 9.66947 28734 ft 360 kts 272°
2026-05-08 15:42 48.32858 9.63218 28369 ft 358 kts 272°
2026-05-08 15:42 48.33074 9.59494 28019 ft 357 kts 272°
2026-05-08 15:42 48.33288 9.55791 27671 ft 355 kts 272°
2026-05-08 15:42 48.33498 9.52107 27330 ft 353 kts 273°
2026-05-08 15:43 48.33705 9.48438 26984 ft 352 kts 273°
2026-05-08 15:43 48.33910 9.44784 26644 ft 350 kts 273°
2026-05-08 15:43 48.34111 9.41199 26311 ft 348 kts 273°
2026-05-08 15:43 48.34315 9.37579 25991 ft 347 kts 273°
2026-05-08 15:44 48.34519 9.33979 25664 ft 345 kts 273°
2026-05-08 15:44 48.34720 9.30394 25342 ft 344 kts 273°
2026-05-08 15:44 48.34918 9.26818 25027 ft 342 kts 273°
2026-05-08 15:44 48.35114 9.23271 24716 ft 340 kts 273°
2026-05-08 15:45 48.35307 9.19729 24396 ft 339 kts 274°
2026-05-08 15:45 48.35497 9.16212 24087 ft 337 kts 274°
2026-05-08 15:45 48.35686 9.12700 23793 ft 336 kts 274°
2026-05-08 15:45 48.35870 9.09252 23547 ft 335 kts 274°
2026-05-08 15:46 48.36055 9.05773 23269 ft 334 kts 274°
2026-05-08 15:46 48.36239 9.02297 22997 ft 333 kts 274°
2026-05-08 15:46 48.36421 8.98835 22722 ft 332 kts 274°
2026-05-08 15:46 48.36602 8.95381 22454 ft 331 kts 273°
2026-05-08 15:47 48.36781 8.91933 22188 ft 330 kts 273°
2026-05-08 15:47 48.36958 8.88496 21924 ft 329 kts 273°
2026-05-08 15:47 48.37130 8.85114 21661 ft 329 kts 273°
2026-05-08 15:47 48.37303 8.81692 21400 ft 328 kts 273°
2026-05-08 15:48 48.37648 8.74873 20884 ft 326 kts 273°
2026-05-08 15:48 48.37817 8.71469 20631 ft 326 kts 273°
2026-05-08 15:48 48.37985 8.68080 20378 ft 325 kts 273°
2026-05-08 15:49 48.38154 8.64693 20127 ft 324 kts 273°
2026-05-08 15:49 48.38334 8.61322 19881 ft 323 kts 274°
2026-05-08 15:49 48.38540 8.57959 19636 ft 323 kts 274°
2026-05-08 15:49 48.38758 8.54599 19393 ft 322 kts 274°
2026-05-08 15:50 48.38974 8.51296 19150 ft 321 kts 274°
2026-05-08 15:50 48.39184 8.47954 18904 ft 321 kts 274°
2026-05-08 15:50 48.39391 8.44622 18681 ft 320 kts 274°
2026-05-08 15:50 48.39599 8.41295 18436 ft 319 kts 274°
2026-05-08 15:51 48.39801 8.37973 18177 ft 318 kts 274°
2026-05-08 15:51 48.39997 8.34664 17907 ft 317 kts 274°
2026-05-08 15:51 48.40194 8.31365 17640 ft 316 kts 274°
2026-05-08 15:51 48.40388 8.28085 17371 ft 314 kts 274°
2026-05-08 15:52 48.40582 8.24813 17100 ft 313 kts 273°
2026-05-08 15:52 48.40771 8.21596 16839 ft 312 kts 274°
2026-05-08 15:52 48.40963 8.18348 16572 ft 311 kts 273°
2026-05-08 15:52 48.41154 8.15110 16321 ft 310 kts 273°
2026-05-08 15:53 48.41341 8.11887 16064 ft 309 kts 273°
2026-05-08 15:53 48.41526 8.08679 15810 ft 307 kts 273°
2026-05-08 15:53 48.41710 8.05476 15555 ft 307 kts 273°
2026-05-08 15:53 48.41894 8.02287 15304 ft 305 kts 273°
2026-05-08 15:54 48.42079 7.99106 15091 ft 304 kts 273°
2026-05-08 15:54 48.42260 7.95977 15020 ft 303 kts 273°
2026-05-08 15:54 48.42443 7.92808 15029 ft 304 kts 273°
2026-05-08 15:54 48.42621 7.89631 15030 ft 304 kts 273°
2026-05-08 15:55 48.42795 7.86458 15030 ft 305 kts 272°
2026-05-08 15:55 48.43138 7.80103 15027 ft 304 kts 272°
2026-05-08 15:55 48.43314 7.76926 15029 ft 305 kts 274°
2026-05-08 15:56 48.43718 7.73778 14807 ft 308 kts 286°
2026-05-08 15:56 48.44587 7.70876 14451 ft 310 kts 299°
2026-05-08 15:56 48.45773 7.68168 14095 ft 310 kts 301°
2026-05-08 15:56 48.46961 7.65463 13716 ft 309 kts 301°
2026-05-08 15:57 48.48141 7.62752 13318 ft 309 kts 301°
2026-05-08 15:57 48.49318 7.60046 12921 ft 308 kts 301°
2026-05-08 15:57 48.50489 7.57351 12533 ft 307 kts 301°
2026-05-08 15:57 48.51651 7.54672 12136 ft 299 kts 301°
2026-05-08 15:58 48.52767 7.52098 11753 ft 288 kts 301°
2026-05-08 15:58 48.53840 7.49622 11377 ft 277 kts 301°
2026-05-08 15:58 48.54675 7.47096 11061 ft 260 kts 282°
2026-05-08 15:58 48.54827 7.44500 11028 ft 250 kts 262°
2026-05-08 15:59 48.54378 7.41989 10746 ft 248 kts 242°
2026-05-08 15:59 48.53387 7.39895 10417 ft 244 kts 229°
2026-05-08 15:59 48.52284 7.37961 10083 ft 243 kts 229°
2026-05-08 15:59 48.51187 7.36030 9719 ft 242 kts 229°
2026-05-08 16:00 48.50096 7.34105 9361 ft 241 kts 229°
2026-05-08 16:00 48.49008 7.32185 8986 ft 241 kts 229°
2026-05-08 16:00 48.47922 7.30271 8617 ft 240 kts 229°
2026-05-08 16:00 48.47201 7.29002 8392 ft 240 kts 229°
2026-05-08 16:01 48.45766 7.26476 7916 ft 239 kts 229°
2026-05-08 16:01 48.44687 7.24572 7565 ft 239 kts 229°
2026-05-08 16:01 48.43610 7.22680 7228 ft 238 kts 227°
2026-05-08 16:01 48.42270 7.21289 7046 ft 236 kts 198°
2026-05-08 16:02 48.40635 7.21107 6927 ft 240 kts 168°
2026-05-08 16:02 48.39628 7.21718 6752 ft 234 kts 147°
2026-05-08 16:02 48.38411 7.23264 6504 ft 225 kts 139°
2026-05-08 16:02 48.37266 7.24804 6268 ft 216 kts 139°
2026-05-08 16:03 48.36152 7.26294 6078 ft 213 kts 139°
2026-05-08 16:03 48.35126 7.28704 5996 ft 205 kts 101°
2026-05-08 16:03 48.35233 7.30780 6015 ft 200 kts 69°
2026-05-08 16:03 48.35709 7.31989 6014 ft 200 kts 50°
2026-05-08 16:04 48.36619 7.33533 6001 ft 200 kts 48°
2026-05-08 16:04 48.37548 7.35090 5819 ft 200 kts 48°
2026-05-08 16:04 48.38470 7.36647 5537 ft 198 kts 48°
2026-05-08 16:04 48.39380 7.38189 5237 ft 196 kts 48°
2026-05-08 16:05 48.40572 7.40213 4839 ft 194 kts 48°
2026-05-08 16:05 48.41461 7.41723 4532 ft 192 kts 48°
2026-05-08 16:05 48.42047 7.42717 4329 ft 191 kts 48°
2026-05-08 16:05 48.42933 7.44224 4026 ft 189 kts 48°
2026-05-08 16:06 48.43786 7.45675 3736 ft 186 kts 48°
2026-05-08 16:06 48.44640 7.47128 3444 ft 184 kts 47°
2026-05-08 16:06 48.45484 7.48565 3162 ft 183 kts 48°
2026-05-08 16:06 48.46323 7.49994 2878 ft 181 kts 48°
2026-05-08 16:07 48.47139 7.51385 2592 ft 171 kts 48°
2026-05-08 16:07 48.47904 7.52691 2335 ft 161 kts 47°
2026-05-08 16:07 48.48626 7.53922 2092 ft 153 kts 47°
2026-05-08 16:07 48.49307 7.55084 1869 ft 145 kts 48°
2026-05-08 16:08 48.49948 7.56179 1635 ft 139 kts 47°
2026-05-08 16:08 48.50580 7.57251 1392 ft 135 kts 48°
2026-05-08 16:08 48.51197 7.58304 1139 ft 133 kts 48°
2026-05-08 16:08 48.51809 7.59345 976 ft 132 kts 48°
2026-05-08 16:09 48.52414 7.60385 772 ft 132 kts 49°
2026-05-08 16:09 48.53021 7.61434 581 ft 132 kts 47°
2026-05-08 16:09 48.53601 7.62426 512 ft 106 kts 49°
2026-05-08 16:09 48.53902 7.62943 510 ft 41 kts 48°
2026-05-08 16:10 48.54071 7.63234 512 ft 34 kts 49°
2026-05-08 16:10 48.54170 7.63396 512 ft 11 kts 33°
2026-05-08 16:10 48.54234 7.63376 512 ft 10 kts 320°
2026-05-08 16:10 48.54260 7.63341 512 ft 3 kts 318°
2026-05-08 16:11 48.54273 7.63323 512 ft 3 kts 318°
2026-05-08 16:11 48.54293 7.63269 512 ft 6 kts 281°
2026-05-08 16:11 48.54301 7.63206 512 ft 7 kts 286°
2026-05-08 16:11 48.54331 7.63139 512 ft 6 kts 316°
2026-05-08 16:12 48.54359 7.63101 512 ft 5 kts 318°
2026-05-08 16:12 48.54380 7.63068 512 ft 4 kts 308°
2026-05-08 16:12 48.54394 7.63036 512 ft 5 kts 304°
2026-05-08 16:12 48.54415 7.62991 512 ft 5 kts 304°
2026-05-08 16:13 48.54431 7.62953 512 ft 4 kts 303°
2026-05-08 16:13 48.54444 7.62923 512 ft 3 kts 303°
2026-05-08 16:13 48.54452 7.62905 512 ft 1 kts 303°
2026-05-08 16:13 48.54452 7.62904 512 ft 0 kts 303°
2026-05-08 16:15 48.54394 7.62825 512 ft 0 kts 319°